Hourly Weather Roundup
Issued by NWS Central Illinois

Home | Current Version | Previous Version | Text Only | Print | Product List | Glossary Off
Versions: 1 2 3 4 5 6 7 8 9 10 11 12 13 14 15 16 17 18 19 20 21 22 23 24 25 26 27 28 29 30 31 32 33 34 35 36 37 38 39 40 41 42 43 44 45 46 47 48 49 50

000
NZUS43 KILX 172210
HWRILX

AREA WEATHER ROUNDUP
NATIONAL WEATHER SERVICE, LINCOLN IL
400 PM CST WED DEC 17 2014


CITY           SKY/WX    TMP DP  RH WIND       PRES   REMARKS
BLOOMINGTON    MOCLDY    25  19  77 NW7       30.27S WCI  17
CHAMPAIGN      CLOUDY    24  18  77 NW6       30.27F WCI  17
DECATUR        CLOUDY    24  19  81 NW8       30.29S WCI  15
FLORA          CLOUDY    32  26  77 N6        30.29F WCI  26
GALESBURG      CLEAR     28  20  74 W8        30.27S WCI  19
JACKSONVILLE   CLEAR     29  21  72 NW6       30.30S WCI  23
LACON          MOCLDY    27  18  69 W8        30.27S WCI  19
LAWRENCEVILLE  CLOUDY    31  24  75 NW6       30.30S WCI  25
LITCHFIELD     CLEAR     30  23  75 NW5       30.29R WCI  25
$$


CITY           SKY/WX    TMP DP  RH WIND       PRES   REMARKS
LINCOLN        CLOUDY    27  20  76 CALM      30.30S
MACOMB         CLEAR     28  21  76 NW6       30.30S WCI  21
MATTOON        CLOUDY    25  19  78 N7        30.27S WCI  17
MT CARMEL AP   CLOUDY    34  27  75 N9        30.29S WCI  26
OLNEY-NOBLE AP CLOUDY    32  27  80 CALM      30.30S
PARIS          CLOUDY    25  22  89 W6        30.30R WCI  18
PEORIA         PTCLDY    29  19  66 W6        30.28S WCI  23
PONTIAC        CLOUDY    28  21  76 NW10      30.28R WCI  18
RANTOUL        CLOUDY    26  21  80 W7        30.27S WCI  19
ROBINSON       CLOUDY    30  25  81 NW7       30.31S WCI  23
SPRINGFIELD    CLEAR     26  18  71 W5        30.30R WCI  20
TAYLORVILLE    MOCLDY    28  23  80 N7        30.29R WCI  21
$$

...REGIONAL REPORTS...


CITY           SKY/WX    TMP DP  RH WIND       PRES   REMARKS
CHICAGO O`HARE CLOUDY    26  16  65 NW12      30.23R WCI  16
KANKAKEE       CLOUDY    27  21  78 W13       30.27R WCI  16
MOLINE         CLEAR     28  15  58 NW12      30.28R WCI  18
MOUNT VERNON   PTCLDY    36  23  60 CALM      30.29S
PITTSFIELD     CLEAR     30  22  70 W6        30.31S WCI  24
QUINCY         CLEAR     26  18  71 NW7       30.30R WCI  18
ROCKFORD       CLOUDY    25  15  66 W9        30.26R WCI  15
$$


CITY           SKY/WX    TMP DP  RH WIND       PRES   REMARKS
BURLINGTON     FLURRIES  30  20  66 NW7       30.28R WCI  23
CEDAR RAPIDS   CLEAR     25  15  66 NW7       30.27R WCI  17
DES MOINES     MOCLDY    28  13  53 CALM      30.29R
KIRKSVILLE     CLEAR     32  20  61 CALM      30.27F
OTTUMWA        CLEAR     27  16  63 NW7       30.28S WCI  19
ST LOUIS       MOCLDY    36  25  64 N6        30.29R WCI  31
$$


CITY           SKY/WX    TMP DP  RH WIND       PRES   REMARKS
TERRE HAUTE    CLOUDY    25  20  81 NW9       30.30R WCI  15
EVANSVILLE     CLOUDY    36  26  67 N7        30.30R WCI  30
INDIANAPOLIS   CLOUDY    24  20  84 W8        30.25R WCI  15
LAFAYETTE      CLOUDY    24  19  81 W8        30.27R WCI  15
MADISON        PTCLDY    23  14  68 NW8       30.22S WCI  14
MILWAUKEE      CLOUDY    26  14  60 NW14G23   30.21R WCI  14
$$





USA.gov is the U.S. government's official web portal to all federal, state and local government web resources and services.